| time (UTC) | temp C | wind direction | speed KPH | gust KPH | rain 1hr cm | rain 24hr cm | rain mn cm | humidity % | barometer mb |
| 20260504045332 | 7 | 131 | 0.0 | 1.6 | 0.00 | 0.00 | 0.00 | 60 | 1013.0 |
| 20260504044830 | 7 | 135 | 1.6 | 1.6 | 0.00 | 0.00 | 0.00 | 59 | 1013.0 |
| 20260504044327 | 7 | 172 | 3.2 | 3.2 | 0.00 | 0.00 | 0.00 | 58 | 1013.0 |
| 20260504043825 | 7 | 125 | 1.6 | 1.6 | 0.00 | 0.00 | 0.00 | 57 | 1013.0 |
| 20260504043321 | 7 | 152 | 1.6 | 1.6 | 0.00 | 0.00 | 0.00 | 57 | 1013.1 |
| 20260504042818 | 7 | 152 | 1.6 | 3.2 | 0.00 | 0.00 | 0.00 | 56 | 1013.0 |
| 20260504042315 | 8 | 181 | 3.2 | 4.8 | 0.00 | 0.00 | 0.00 | 56 | 1012.9 |
| 20260504041811 | 8 | 147 | 3.2 | 3.2 | 0.00 | 0.00 | 0.00 | 55 | 1013.1 |
| 20260504041307 | 8 | 199 | 3.2 | 6.4 | 0.00 | 0.00 | 0.00 | 54 | 1012.9 |
| 20260504040804 | 8 | 176 | 3.2 | 4.8 | 0.00 | 0.00 | 0.00 | 54 | 1013.0 |
| 20260504040301 | 8 | 153 | 1.6 | 4.8 | 0.00 | 0.00 | 0.00 | 54 | 1013.0 |
| 20260504035757 | 8 | 139 | 1.6 | 4.8 | 0.00 | 0.00 | 0.00 | 55 | 1013.0 |
| 20260504035254 | 8 | 124 | 1.6 | 3.2 | 0.00 | 0.00 | 0.00 | 56 | 1013.0 |
| 20260504034751 | 8 | 188 | 3.2 | 4.8 | 0.00 | 0.00 | 0.00 | 54 | 1012.8 |
| 20260504034249 | 8 | 264 | 4.8 | 4.8 | 0.00 | 0.00 | 0.00 | 55 | 1012.9 |
| 20260504033746 | 8 | 174 | 1.6 | 3.2 | 0.00 | 0.00 | 0.00 | 55 | 1012.8 |
| 20260504033244 | 7 | 210 | 3.2 | 3.2 | 0.00 | 0.00 | 0.00 | 56 | 1012.9 |
| 20260504032740 | 7 | 143 | 1.6 | 3.2 | 0.00 | 0.00 | 0.00 | 56 | 1012.9 |
| 20260504032237 | 7 | 187 | 3.2 | 4.8 | 0.00 | 0.00 | 0.00 | 56 | 1013.1 |
| 20260504031734 | 7 | 259 | 3.2 | 4.8 | 0.00 | 0.00 | 0.00 | 56 | 1012.9 |
| 20260504031232 | 7 | 148 | 1.6 | 1.6 | 0.00 | 0.00 | 0.00 | 57 | 1012.7 |
| 20260504030727 | 7 | 134 | 0.0 | 0.0 | 0.00 | 0.00 | 0.00 | 58 | 1012.8 |
| 20260504030225 | 7 | 136 | 0.0 | 0.0 | 0.00 | 0.00 | 0.00 | 57 | 1012.8 |
| 20260504025721 | 7 | 130 | 0.0 | 0.0 | 0.00 | 0.00 | 0.00 | 56 | 1012.9 |
| 20260504025218 | 8 | 137 | 1.6 | 3.2 | 0.00 | 0.00 | 0.00 | 55 | 1012.9 |
| 20260504024715 | 8 | 128 | 0.0 | 1.6 | 0.00 | 0.00 | 0.00 | 56 | 1013.0 |
| 20260504024211 | 8 | 170 | 1.6 | 1.6 | 0.00 | 0.00 | 0.00 | 56 | 1012.9 |
| 20260504023708 | 8 | 172 | 1.6 | 3.2 | 0.00 | 0.00 | 0.00 | 55 | 1012.9 |
| 20260504023204 | 8 | 136 | 1.6 | 3.2 | 0.00 | 0.00 | 0.00 | 54 | 1013.0 |
| 20260504022701 | 8 | 137 | 0.0 | 0.0 | 0.00 | 0.00 | 0.00 | 56 | 1012.9 |
| 20260504022157 | 8 | 145 | 1.6 | 3.2 | 0.00 | 0.00 | 0.00 | 55 | 1013.0 |
| 20260504021655 | 8 | 135 | 0.0 | 1.6 | 0.00 | 0.00 | 0.00 | 55 | 1013.0 |
| 20260504021151 | 8 | 144 | 1.6 | 1.6 | 0.00 | 0.00 | 0.00 | 54 | 1013.0 |
| 20260504020648 | 8 | 147 | 1.6 | 1.6 | 0.00 | 0.00 | 0.00 | 54 | 1012.8 |
| 20260504020144 | 8 | 132 | 0.0 | 3.2 | 0.00 | 0.00 | 0.00 | 53 | 1012.9 |
| 20260504015641 | 9 | 291 | 1.6 | 3.2 | 0.00 | 0.00 | 0.00 | 52 | 1012.9 |
| 20260504015137 | 9 | 156 | 1.6 | 4.8 | 0.00 | 0.00 | 0.00 | 52 | 1012.9 |
| 20260504014633 | 8 | 242 | 1.6 | 3.2 | 0.00 | 0.00 | 0.00 | 52 | 1012.7 |
| 20260504014130 | 8 | 154 | 1.6 | 1.6 | 0.00 | 0.00 | 0.00 | 52 | 1012.7 |
| 20260504013628 | 8 | 138 | 1.6 | 1.6 | 0.00 | 0.00 | 0.00 | 53 | 1012.8 |
| 20260504013125 | 9 | 123 | 0.0 | 3.2 | 0.00 | 0.00 | 0.00 | 52 | 1012.6 |
| 20260504012622 | 9 | 135 | 1.6 | 1.6 | 0.00 | 0.00 | 0.00 | 52 | 1012.8 |
| 20260504012120 | 9 | 132 | 0.0 | 1.6 | 0.00 | 0.00 | 0.00 | 52 | 1012.8 |
| 20260504011617 | 9 | 127 | 1.6 | 1.6 | 0.00 | 0.00 | 0.00 | 52 | 1012.6 |
| 20260504011113 | 9 | 142 | 1.6 | 1.6 | 0.00 | 0.00 | 0.00 | 52 | 1012.7 |
| 20260504010609 | 9 | 141 | 1.6 | 3.2 | 0.00 | 0.00 | 0.00 | 52 | 1012.7 |
| 20260504010105 | 9 | 130 | 0.0 | 1.6 | 0.00 | 0.00 | 0.00 | 51 | 1012.7 |
| 20260504005602 | 10 | 150 | 1.6 | 1.6 | 0.00 | 0.00 | 0.00 | 50 | 1012.7 |
| 20260504005059 | 10 | 167 | 0.0 | 1.6 | 0.00 | 0.00 | 0.00 | 50 | 1012.6 |
| 20260504004557 | 10 | 136 | 0.0 | 1.6 | 0.00 | 0.00 | 0.00 | 49 | 1012.5 |
| 20260504004054 | 10 | 127 | 0.0 | 1.6 | 0.00 | 0.00 | 0.00 | 49 | 1012.5 |
| 20260504003549 | 10 | 155 | 1.6 | 1.6 | 0.00 | 0.00 | 0.00 | 47 | 1012.5 |
| 20260504003046 | 10 | 206 | 3.2 | 3.2 | 0.00 | 0.00 | 0.00 | 46 | 1012.5 |
| 20260504002543 | 11 | 157 | 1.6 | 1.6 | 0.00 | 0.00 | 0.00 | 46 | 1012.1 |
| 20260504002041 | 11 | 155 | 1.6 | 4.8 | 0.00 | 0.00 | 0.00 | 45 | 1012.1 |
| 20260504001539 | 11 | 162 | 3.2 | 4.8 | 0.00 | 0.00 | 0.00 | 44 | 1012.5 |
| 20260504001034 | 11 | 163 | 1.6 | 3.2 | 0.00 | 0.00 | 0.00 | 43 | 1012.2 |
| 20260504000532 | 11 | 178 | 3.2 | 4.8 | 0.00 | 0.00 | 0.00 | 44 | 1012.2 |
| 20260504000029 | 11 | 224 | 4.8 | 9.7 | 0.00 | 0.00 | 0.00 | 42 | 1012.3 |
| 20260503235527 | 12 | 147 | 1.6 | 4.8 | 0.00 | 0.00 | 0.00 | 42 | 1012.1 |
| 20260503235024 | 12 | 284 | 3.2 | 6.4 | 0.00 | 0.00 | 0.00 | 42 | 1012.1 |
| 20260503234521 | 12 | 263 | 3.2 | 4.8 | 0.00 | 0.00 | 0.00 | 42 | 1012.0 |
| 20260503234020 | 12 | 286 | 6.4 | 12.9 | 0.00 | 0.00 | 0.00 | 41 | 1011.9 |
| 20260503233516 | 12 | 192 | 3.2 | 4.8 | 0.00 | 0.00 | 0.00 | 40 | 1012.0 |
| 20260503233012 | 12 | 249 | 6.4 | 9.7 | 0.00 | 0.00 | 0.00 | 40 | 1012.0 |
| 20260503232509 | 13 | 210 | 4.8 | 4.8 | 0.00 | 0.00 | 0.00 | 40 | 1012.1 |
| 20260503232007 | 13 | 239 | 4.8 | 4.8 | 0.00 | 0.00 | 0.00 | 41 | 1012.0 |
| 20260503231504 | 13 | 283 | 3.2 | 6.4 | 0.00 | 0.00 | 0.00 | 39 | 1012.0 |
| 20260503231001 | 13 | 230 | 3.2 | 11.3 | 0.00 | 0.00 | 0.00 | 40 | 1012.0 |
| 20260503230457 | 13 | 175 | 6.4 | 12.9 | 0.00 | 0.00 | 0.00 | 40 | 1011.9 |
| 20260503225955 | 13 | 257 | 6.4 | 11.3 | 0.00 | 0.00 | 0.00 | 39 | 1012.1 |
| 20260503225451 | 13 | 222 | 9.7 | 12.9 | 0.00 | 0.00 | 0.00 | 39 | 1011.7 |
| 20260503224947 | 13 | 269 | 6.4 | 9.7 | 0.00 | 0.00 | 0.00 | 38 | 1012.0 |
| 20260503224444 | 13 | 269 | 3.2 | 11.3 | 0.00 | 0.00 | 0.00 | 39 | 1012.1 |
| 20260503223942 | 13 | 207 | 3.2 | 6.4 | 0.00 | 0.00 | 0.00 | 41 | 1012.0 |
| 20260503223440 | 12 | 271 | 4.8 | 11.3 | 0.00 | 0.00 | 0.00 | 40 | 1012.1 |
| 20260503222935 | 12 | 248 | 4.8 | 11.3 | 0.00 | 0.00 | 0.00 | 42 | 1012.0 |
| 20260503222434 | 12 | 172 | 4.8 | 11.3 | 0.00 | 0.00 | 0.00 | 41 | 1012.0 |
| 20260503221931 | 12 | 263 | 9.7 | 14.5 | 0.00 | 0.00 | 0.00 | 40 | 1012.1 |
| 20260503221429 | 13 | 184 | 6.4 | 9.7 | 0.00 | 0.00 | 0.00 | 39 | 1011.9 |
| 20260503220926 | 14 | 253 | 6.4 | 16.1 | 0.00 | 0.00 | 0.00 | 38 | 1012.1 |
| 20260503220422 | 13 | 223 | 6.4 | 14.5 | 0.00 | 0.00 | 0.00 | 38 | 1012.2 |
| 20260503215919 | 12 | 246 | 8.0 | 14.5 | 0.00 | 0.00 | 0.00 | 39 | 1012.1 |
| 20260503215416 | 12 | 299 | 12.9 | 12.9 | 0.00 | 0.00 | 0.00 | 39 | 1012.1 |
| 20260503214914 | 13 | 249 | 8.0 | 17.7 | 0.00 | 0.00 | 0.00 | 40 | 1012.2 |
| 20260503214411 | 15 | 234 | 4.8 | 12.9 | 0.00 | 0.00 | 0.00 | 38 | 1012.1 |
| 20260503213909 | 13 | 267 | 9.7 | 14.5 | 0.00 | 0.00 | 0.00 | 39 | 1012.1 |
| 20260503213406 | 13 | 73 | 3.2 | 12.9 | 0.00 | 0.00 | 0.00 | 40 | 1012.2 |
| 20260503212903 | 13 | 273 | 3.2 | 6.4 | 0.00 | 0.00 | 0.00 | 39 | 1011.9 |
| 20260503212401 | 13 | 298 | 9.7 | 14.5 | 0.00 | 0.00 | 0.00 | 39 | 1012.1 |
| 20260503211857 | 13 | 274 | 9.7 | 14.5 | 0.00 | 0.00 | 0.00 | 38 | 1011.9 |
| 20260503211354 | 13 | 251 | 3.2 | 11.3 | 0.00 | 0.00 | 0.00 | 39 | 1012.0 |
| 20260503210849 | 13 | 264 | 14.5 | 17.7 | 0.00 | 0.00 | 0.00 | 37 | 1011.9 |
| 20260503210347 | 13 | 193 | 8.0 | 22.5 | 0.00 | 0.00 | 0.00 | 39 | 1012.0 |
| 20260503205842 | 13 | 238 | 4.8 | 11.3 | 0.00 | 0.00 | 0.00 | 38 | 1011.9 |
| 20260503205339 | 13 | 275 | 9.7 | 14.5 | 0.00 | 0.00 | 0.00 | 38 | 1012.0 |
| 20260503204835 | 15 | 221 | 8.0 | 16.1 | 0.00 | 0.00 | 0.00 | 38 | 1012.0 |
| 20260503204332 | 13 | 212 | 3.2 | 9.7 | 0.00 | 0.00 | 0.00 | 39 | 1012.0 |
| 20260503203829 | 15 | 214 | 6.4 | 11.3 | 0.00 | 0.00 | 0.00 | 38 | 1012.0 |
| 20260503203327 | 14 | 78 | 1.6 | 16.1 | 0.00 | 0.00 | 0.00 | 39 | 1012.3 |
| 20260503202824 | 13 | 159 | 1.6 | 9.7 | 0.00 | 0.00 | 0.00 | 41 | 1012.2 |
| 20260503202322 | 13 | 216 | 8.0 | 16.1 | 0.00 | 0.00 | 0.00 | 39 | 1012.3 |
| 20260503201820 | 14 | 250 | 9.7 | 12.9 | 0.00 | 0.00 | 0.00 | 38 | 1012.6 |
| 20260503201316 | 13 | 258 | 11.3 | 14.5 | 0.00 | 0.00 | 0.00 | 38 | 1012.3 |
| 20260503200814 | 13 | 19 | 6.4 | 17.7 | 0.00 | 0.00 | 0.00 | 38 | 1012.3 |
| 20260503200310 | 13 | 247 | 1.6 | 16.1 | 0.00 | 0.00 | 0.00 | 40 | 1012.6 |
| 20260503195807 | 13 | 232 | 8.0 | 11.3 | 0.00 | 0.00 | 0.00 | 37 | 1012.6 |
| 20260503195304 | 13 | 295 | 8.0 | 16.1 | 0.00 | 0.00 | 0.00 | 38 | 1012.5 |
| 20260503194801 | 13 | 235 | 14.5 | 17.7 | 0.00 | 0.00 | 0.00 | 38 | 1012.5 |
| 20260503194256 | 12 | 273 | 11.3 | 14.5 | 0.00 | 0.00 | 0.00 | 38 | 1012.6 |
| 20260503193753 | 13 | 288 | 11.3 | 17.7 | 0.00 | 0.00 | 0.00 | 38 | 1012.6 |
| 20260503193249 | 13 | 282 | 8.0 | 12.9 | 0.00 | 0.00 | 0.00 | 38 | 1012.6 |
| 20260503192739 | 13 | 290 | 11.3 | 14.5 | 0.00 | 0.00 | 0.00 | 38 | 1012.8 |
| 20260503192234 | 14 | 289 | 12.9 | 14.5 | 0.00 | 0.00 | 0.00 | 36 | 1012.8 |
| 20260503191732 | 13 | 280 | 8.0 | 17.7 | 0.00 | 0.00 | 0.00 | 37 | 1013.0 |
| 20260503191229 | 13 | 232 | 12.9 | 16.1 | 0.00 | 0.00 | 0.00 | 40 | 1012.8 |
| 20260503190726 | 13 | 101 | 6.4 | 16.1 | 0.00 | 0.00 | 0.00 | 39 | 1013.1 |
| 20260503190222 | 13 | 171 | 3.2 | 14.5 | 0.00 | 0.00 | 0.00 | 41 | 1013.1 |
| 20260503185720 | 13 | 244 | 14.5 | 20.9 | 0.00 | 0.00 | 0.00 | 38 | 1013.2 |
| 20260503185215 | 13 | 237 | 9.7 | 12.9 | 0.00 | 0.00 | 0.00 | 39 | 1013.1 |
| 20260503184710 | 13 | 263 | 6.4 | 12.9 | 0.00 | 0.00 | 0.00 | 39 | 1013.2 |
| 20260503184206 | 12 | 240 | 8.0 | 9.7 | 0.00 | 0.00 | 0.00 | 39 | 1013.3 |
| 20260503183703 | 13 | 304 | 9.7 | 11.3 | 0.00 | 0.00 | 0.00 | 39 | 1013.3 |
| 20260503183200 | 12 | 256 | 6.4 | 12.9 | 0.00 | 0.00 | 0.00 | 41 | 1013.3 |
| 20260503182658 | 12 | 272 | 9.7 | 12.9 | 0.00 | 0.00 | 0.00 | 40 | 1013.3 |
| 20260503182156 | 12 | 239 | 4.8 | 12.9 | 0.00 | 0.00 | 0.00 | 46 | 1013.5 |
| 20260503181652 | 13 | 131 | 1.6 | 12.9 | 0.00 | 0.00 | 0.00 | 46 | 1013.4 |
| 20260503181149 | 12 | 238 | 3.2 | 22.5 | 0.00 | 0.00 | 0.00 | 40 | 1013.5 |
| 20260503180646 | 13 | 229 | 12.9 | 16.1 | 0.00 | 0.00 | 0.00 | 41 | 1013.4 |
| 20260503180145 | 12 | 290 | 1.6 | 14.5 | 0.00 | 0.00 | 0.00 | 45 | 1013.3 |
| 20260503175641 | 11 | 251 | 11.3 | 14.5 | 0.00 | 0.00 | 0.00 | 41 | 1013.4 |
| 20260503175138 | 11 | 288 | 3.2 | 12.9 | 0.00 | 0.00 | 0.00 | 45 | 1013.6 |
| 20260503174635 | 12 | 210 | 8.0 | 24.1 | 0.00 | 0.00 | 0.00 | 41 | 1013.6 |
| 20260503174132 | 12 | 302 | 8.0 | 12.9 | 0.00 | 0.00 | 0.00 | 43 | 1013.6 |
| 20260503173627 | 11 | 307 | 14.5 | 20.9 | 0.00 | 0.00 | 0.00 | 41 | 1013.7 |
| 20260503173124 | 11 | 232 | 9.7 | 22.5 | 0.00 | 0.00 | 0.00 | 40 | 1013.6 |
| 20260503172621 | 11 | 200 | 8.0 | 12.9 | 0.00 | 0.00 | 0.00 | 41 | 1013.8 |
| 20260503172118 | 12 | 159 | 4.8 | 14.5 | 0.00 | 0.00 | 0.00 | 45 | 1013.8 |
| 20260503171615 | 12 | 251 | 4.8 | 11.3 | 0.00 | 0.00 | 0.00 | 43 | 1013.5 |
| 20260503171112 | 11 | 273 | 11.3 | 14.5 | 0.00 | 0.00 | 0.00 | 44 | 1013.6 |
| 20260503170609 | 11 | 213 | 4.8 | 12.9 | 0.00 | 0.00 | 0.00 | 44 | 1013.9 |
| 20260503170105 | 11 | 230 | 6.4 | 16.1 | 0.00 | 0.00 | 0.00 | 43 | 1013.8 |
| 20260503151000 | 9 | 246 | 9.7 | 12.9 | 0.00 | 0.00 | 0.00 | 46 | 1014.9 |
| 20260503150457 | 8 | 299 | 6.4 | 17.7 | 0.00 | 0.00 | 0.00 | 50 | 1015.0 |
| 20260503131350 | 6 | 272 | 6.4 | 14.5 | 0.00 | 0.00 | 0.00 | 61 | 1015.4 |
| 20260503130847 | 6 | 245 | 9.7 | 14.5 | 0.00 | 0.00 | 0.00 | 60 | 1015.4 |
| 20260503130345 | 6 | 240 | 4.8 | 9.7 | 0.00 | 0.00 | 0.00 | 61 | 1015.5 |
| 20260503110744 | 1 | 136 | 1.6 | 3.2 | 0.00 | 0.00 | 0.00 | 74 | 1014.9 |
| 20260503110241 | 1 | 166 | 0.0 | 1.6 | 0.00 | 0.00 | 0.00 | 74 | 1014.8 |
| 20260503100207 | 1 | 274 | 3.2 | 4.8 | 0.00 | 0.00 | 0.00 | 75 | 1014.0 |
| 20260503090131 | 2 | 279 | 6.4 | 9.7 | 0.00 | 0.00 | 0.00 | 71 | 1013.9 |
| 20260503081602 | 2 | 133 | 0.0 | 1.6 | 0.00 | 0.00 | 0.00 | 73 | 1013.7 |
| 20260503081100 | 2 | 203 | 3.2 | 3.2 | 0.00 | 0.00 | 0.00 | 72 | 1013.7 |
| 20260503080555 | 2 | 209 | 3.2 | 4.8 | 0.00 | 0.00 | 0.00 | 72 | 1013.5 |
| 20260503072529 | 2 | 141 | 1.6 | 1.6 | 0.00 | 0.00 | 0.00 | 71 | 1013.5 |
| 20260503072026 | 2 | 294 | 6.4 | 9.7 | 0.00 | 0.00 | 0.00 | 70 | 1013.5 |
| 20260503071523 | 2 | 151 | 1.6 | 3.2 | 0.00 | 0.00 | 0.00 | 70 | 1013.4 |
| 20260503071020 | 2 | 274 | 4.8 | 4.8 | 0.00 | 0.00 | 0.00 | 69 | 1013.5 |
| 20260503070516 | 2 | 130 | 1.6 | 3.2 | 0.00 | 0.00 | 0.00 | 68 | 1013.3 |
| 20260503054934 | 2 | 197 | 1.6 | 4.8 | 0.00 | 0.00 | 0.00 | 68 | 1013.6 |
| 20260503054430 | 2 | 300 | 3.2 | 4.8 | 0.00 | 0.00 | 0.00 | 69 | 1013.6 |
| 20260503053928 | 2 | 151 | 0.0 | 1.6 | 0.00 | 0.00 | 0.00 | 69 | 1013.5 |
| 20260503053426 | 3 | 119 | 0.0 | 0.0 | 0.00 | 0.00 | 0.00 | 69 | 1013.4 |
| 20260503052922 | 3 | 127 | 0.0 | 1.6 | 0.00 | 0.00 | 0.00 | 67 | 1013.7 |
| 20260503052420 | 3 | 115 | 0.0 | 1.6 | 0.00 | 0.00 | 0.00 | 68 | 1013.8 |
| 20260503051916 | 3 | 122 | 0.0 | 1.6 | 0.00 | 0.00 | 0.00 | 68 | 1013.7 |
| 20260503051412 | 3 | 151 | 3.2 | 3.2 | 0.00 | 0.00 | 0.00 | 66 | 1013.7 |
| 20260503050909 | 3 | 164 | 1.6 | 3.2 | 0.00 | 0.00 | 0.00 | 66 | 1013.7 |
| 20260503050405 | 3 | 124 | 0.0 | 1.6 | 0.00 | 0.00 | 0.00 | 68 | 1013.5 |
| 20260503045903 | 3 | 123 | 0.0 | 1.6 | 0.00 | 0.00 | 0.00 | 66 | 1013.6 |